When you browse on this site, cookies collect data to enhance your experience and personalize the content and advertising you see.
Visit our Privacy Policy to learn more. By continuing to use the site, you agree to this use of cookies and data.
  • In Lithuania
  • List of Countries
  • For 7 days
  • Water Temperature
  • Satellite Maps
  • Weather Map
  • Weather Widgets
  • user-avatar
    Login

    Hourly Weather Tynevichi

    Today, 22 July, Monday

    Time Temperature Precipitation Wind Pressure Humidity
    00:00 +19°C° 0.4 mm 3 mps 748 mmHg 91%
    01:00 +19°C° 0.4 mm 4 mps 748 mmHg 91%
    02:00 +19°C° 0 mm 5 mps 749 mmHg 89%
    03:00 +18°C° 0.2 mm 4 mps 749 mmHg 91%
    04:00 +18°C° 0.2 mm 3 mps 749 mmHg 92%
    05:00 +18°C° 0.2 mm 2 mps 749 mmHg 94%
    06:00 +18°C° 0 mm 3 mps 749 mmHg 91%
    07:00 +19°C° 0 mm 4 mps 749 mmHg 89%
    08:00 +20°C° 0 mm 4 mps 750 mmHg 86%
    09:00 +21°C° 0 mm 4 mps 750 mmHg 80%
    10:00 +22°C° 0 mm 5 mps 750 mmHg 74%
    11:00 +23°C° 0 mm 5 mps 750 mmHg 68%
    12:00 +23°C° 0 mm 6 mps 750 mmHg 65%
    13:00 +24°C° 0 mm 6 mps 750 mmHg 62%
    14:00 +24°C° 0 mm 6 mps 750 mmHg 59%
    15:00 +24°C° 0 mm 6 mps 750 mmHg 61%
    16:00 +25°C° 0 mm 5 mps 750 mmHg 63%
    17:00 +25°C° 0 mm 5 mps 750 mmHg 65%
    18:00 +22°C° 0 mm 5 mps 750 mmHg 69%
    19:00 +21°C° 0 mm 4 mps 750 mmHg 73%
    20:00 +19°C° 0 mm 4 mps 750 mmHg 78%
    21:00 +18°C° 0 mm 4 mps 750 mmHg 79%
    22:00 +17°C° 0 mm 3 mps 750 mmHg 81%
    23:00 +16°C° 0 mm 3 mps 750 mmHg 83%

    Tomorrow, 23 July, Tuesday

    Time Temperature Precipitation Wind Pressure Humidity
    00:00 +14°C° 0 mm 3 mps 750 mmHg 84%
    01:00 +13°C° 0 mm 3 mps 750 mmHg 86%
    02:00 +12°C° 0 mm 3 mps 750 mmHg 87%
    03:00 +12°C° 0 mm 3 mps 750 mmHg 90%
    04:00 +11°C° 0 mm 3 mps 750 mmHg 92%
    05:00 +11°C° 0 mm 3 mps 749 mmHg 95%
    06:00 +13°C° 0 mm 3 mps 749 mmHg 90%
    07:00 +14°C° 0 mm 4 mps 749 mmHg 85%
    08:00 +17°C° 0 mm 4 mps 749 mmHg 79%
    09:00 +18°C° 0 mm 4 mps 749 mmHg 75%
    10:00 +20°C° 0 mm 5 mps 749 mmHg 70%
    11:00 +21°C° 0 mm 5 mps 749 mmHg 65%
    12:00 +22°C° 0 mm 5 mps 749 mmHg 63%
    13:00 +22°C° 0 mm 5 mps 748 mmHg 61%
    14:00 +23°C° 0 mm 5 mps 748 mmHg 59%
    15:00 +23°C° 0.3 mm 5 mps 748 mmHg 63%
    16:00 +22°C° 0.3 mm 4 mps 748 mmHg 68%
    17:00 +22°C° 0.3 mm 3 mps 748 mmHg 72%
    18:00 +21°C° 0.1 mm 3 mps 748 mmHg 76%
    19:00 +20°C° 0.1 mm 3 mps 748 mmHg 80%
    20:00 +18°C° 0.1 mm 3 mps 748 mmHg 84%
    21:00 +18°C° 0 mm 3 mps 748 mmHg 87%
    22:00 +17°C° 0 mm 3 mps 748 mmHg 90%
    23:00 +16°C° 0 mm 3 mps 748 mmHg 93%

    Day after tomorrow, 24 July, Wednesday

    Time Temperature Precipitation Wind Pressure Humidity
    00:00 +16°C° 0 mm 3 mps 748 mmHg 94%
    01:00 +14°C° 0 mm 3 mps 748 mmHg 95%
    02:00 +14°C° 0 mm 3 mps 748 mmHg 96%
    03:00 +14°C° 0 mm 3 mps 748 mmHg 96%
    04:00 +14°C° 0 mm 3 mps 748 mmHg 97%
    05:00 +13°C° 0 mm 3 mps 748 mmHg 97%
    06:00 +16°C° 0 mm 3 mps 748 mmHg 94%
    07:00 +17°C° 0 mm 3 mps 748 mmHg 91%
    08:00 +19°C° 0 mm 3 mps 748 mmHg 88%
    09:00 +20°C° 0 mm 4 mps 748 mmHg 78%
    10:00 +22°C° 0 mm 4 mps 748 mmHg 69%
    11:00 +25°C° 0 mm 4 mps 749 mmHg 60%
    12:00 +25°C° 0 mm 4 mps 749 mmHg 58%
    13:00 +26°C° 0 mm 4 mps 749 mmHg 57%
    14:00 +26°C° 0 mm 4 mps 748 mmHg 55%
    15:00 +26°C° 0 mm 4 mps 748 mmHg 57%
    16:00 +26°C° 0 mm 4 mps 748 mmHg 60%
    17:00 +25°C° 0 mm 4 mps 748 mmHg 63%
    18:00 +23°C° 0 mm 4 mps 749 mmHg 69%
    19:00 +21°C° 0 mm 3 mps 749 mmHg 76%
    20:00 +20°C° 0 mm 3 mps 749 mmHg 82%
    21:00 +19°C° 0 mm 3 mps 749 mmHg 85%
    22:00 +18°C° 0 mm 3 mps 749 mmHg 88%
    23:00 +17°C° 0 mm 3 mps 750 mmHg 91%

    25 July, Thursday

    Time Temperature Precipitation Wind Pressure Humidity
    00:00 +17°C° 0 mm 3 mps 750 mmHg 91%
    01:00 +16°C° 0 mm 3 mps 750 mmHg 91%
    02:00 +16°C° 0 mm 3 mps 750 mmHg 91%
    03:00 +14°C° 0 mm 3 mps 750 mmHg 91%
    04:00 +14°C° 0 mm 3 mps 750 mmHg 91%
    05:00 +14°C° 0 mm 3 mps 750 mmHg 91%
    06:00 +16°C° 0 mm 3 mps 750 mmHg 86%
    07:00 +18°C° 0 mm 3 mps 750 mmHg 82%
    08:00 +20°C° 0 mm 3 mps 751 mmHg 77%
    09:00 +21°C° 0 mm 4 mps 751 mmHg 70%
    10:00 +23°C° 0 mm 4 mps 751 mmHg 63%
    11:00 +25°C° 0 mm 4 mps 751 mmHg 56%
    12:00 +26°C° 0 mm 4 mps 751 mmHg 55%
    13:00 +26°C° 0 mm 4 mps 750 mmHg 54%
    14:00 +27°C° 0 mm 4 mps 750 mmHg 53%
    15:00 +26°C° 0.3 mm 4 mps 750 mmHg 59%
    16:00 +26°C° 0.3 mm 4 mps 750 mmHg 64%
    17:00 +25°C° 0.3 mm 4 mps 750 mmHg 69%
    18:00 +23°C° 0.1 mm 4 mps 750 mmHg 73%
    19:00 +21°C° 0.1 mm 3 mps 750 mmHg 78%
    20:00 +20°C° 0.1 mm 3 mps 749 mmHg 82%
    21:00 +19°C° 0 mm 3 mps 750 mmHg 85%
    22:00 +19°C° 0 mm 3 mps 750 mmHg 88%
    23:00 +18°C° 0 mm 3 mps 750 mmHg 90%

    26 July, Friday

    Time Temperature Precipitation Wind Pressure Humidity
    00:00 +17°C° 0 mm 3 mps 750 mmHg 92%
    01:00 +17°C° 0 mm 3 mps 750 mmHg 93%
    02:00 +17°C° 0 mm 3 mps 750 mmHg 94%
    03:00 +16°C° 0 mm 3 mps 750 mmHg 95%
    04:00 +16°C° 0 mm 3 mps 750 mmHg 95%
    05:00 +16°C° 0 mm 3 mps 749 mmHg 95%
    06:00 +17°C° 0 mm 4 mps 749 mmHg 89%
    07:00 +19°C° 0 mm 4 mps 749 mmHg 83%
    08:00 +20°C° 0 mm 5 mps 749 mmHg 78%
    09:00 +22°C° 0 mm 5 mps 749 mmHg 73%
    10:00 +23°C° 0 mm 6 mps 749 mmHg 68%
    11:00 +24°C° 0 mm 6 mps 749 mmHg 64%
    12:00 +24°C° 0.1 mm 6 mps 749 mmHg 65%
    13:00 +25°C° 0.1 mm 5 mps 749 mmHg 66%
    14:00 +25°C° 0.1 mm 5 mps 749 mmHg 67%
    15:00 +25°C° 0.2 mm 5 mps 748 mmHg 70%
    16:00 +25°C° 0.2 mm 5 mps 748 mmHg 72%
    17:00 +25°C° 0.2 mm 5 mps 748 mmHg 74%
    18:00 +23°C° 0.1 mm 4 mps 748 mmHg 78%
    19:00 +22°C° 0.1 mm 4 mps 748 mmHg 81%
    20:00 +21°C° 0.1 mm 3 mps 748 mmHg 85%
    21:00 +20°C° 0 mm 3 mps 748 mmHg 87%
    22:00 +19°C° 0 mm 3 mps 748 mmHg 88%
    23:00 +18°C° 0 mm 3 mps 748 mmHg 90%

    27 July, Saturday

    Time Temperature Precipitation Wind Pressure Humidity
    00:00 +18°C° 0 mm 3 mps 748 mmHg 91%
    01:00 +18°C° 0 mm 3 mps 748 mmHg 91%
    02:00 +17°C° 0 mm 3 mps 748 mmHg 92%
    03:00 +17°C° 0 mm 3 mps 748 mmHg 92%
    04:00 +17°C° 0 mm 3 mps 748 mmHg 91%
    05:00 +16°C° 0 mm 3 mps 748 mmHg 91%
    06:00 +18°C° 0 mm 3 mps 748 mmHg 87%
    07:00 +19°C° 0 mm 3 mps 748 mmHg 83%
    08:00 +21°C° 0 mm 3 mps 748 mmHg 79%
    09:00 +22°C° 0 mm 3 mps 748 mmHg 72%
    10:00 +25°C° 0 mm 3 mps 748 mmHg 66%
    11:00 +27°C° 0 mm 3 mps 748 mmHg 59%
    12:00 +27°C° 0 mm 3 mps 748 mmHg 58%
    13:00 +28°C° 0 mm 3 mps 748 mmHg 57%
    14:00 +28°C° 0 mm 3 mps 747 mmHg 56%
    15:00 +28°C° 0 mm 3 mps 747 mmHg 57%
    16:00 +28°C° 0 mm 3 mps 747 mmHg 59%
    17:00 +28°C° 0 mm 3 mps 747 mmHg 60%
    18:00 +26°C° 0 mm 3 mps 747 mmHg 66%
    19:00 +25°C° 0 mm 3 mps 747 mmHg 73%
    20:00 +23°C° 0 mm 2 mps 747 mmHg 79%
    21:00 +21°C° 0 mm 2 mps 747 mmHg 82%
    22:00 +20°C° 0 mm 2 mps 748 mmHg 85%
    23:00 +20°C° 0 mm 2 mps 748 mmHg 88%
    Show more